Regional Weather Roundup
Issued by NWS Charleston, SC

Home | Current Version | Previous Version | Text Only | Print | Product List | Glossary On
Versions: 1 2 3 4 5 6 7 8 9 10 11 12 13 14 15 16 17 18 19 20 21 22 23 24 25 26 27 28 29 30 31 32 33 34 35 36 37 38 39 40 41 42 43 44 45 46 47 48 49 50
000
ASUS42 KCHS 201127
RWRCHS

REGIONAL WEATHER ROUNDUP
NATIONAL WEATHER SERVICE CHARLESTON SC
600 AM EST MON FEB 20 2017

NOTE: "FAIR" INDICATES FEW OR NO CLOUDS BELOW 12,000 FEET WITH NO
SIGNIFICANT WEATHER AND/OR OBSTRUCTIONS TO VISIBILITY.

NOT ALL STATIONS ARE QUALITY CONTROLLED. USE DATA WITH CAUTION...
ESPECIALLY DEWPOINT OBSERVATIONS.

SCZ027-030-031-034>040-042>050-201200-
...SOUTHEAST SOUTH CAROLINA...

CITY           SKY/WX    TMP DP  RH WIND       PRES   REMARKS
N CHARLESTON   CLEAR     48  45  89 N3        30.14R
WATERFRONT PRK   N/A     57  51  80 N6        30.12R
MOUNT PLEASANT LGT RAIN  52  48  87 CALM      30.14S
JOHNS ISLAND   FAIR      54  48  82 N7        30.14R
PINOPOLIS        N/A     57  50  77 NE7       30.05R
MONCKS CORNER  FAIR      45  43  93 N3        30.15R
SUMMERVILLE    FAIR      45  45 100 N3        30.16R
BEAUFORT MCAS  CLEAR     49  48  97 N3        30.14R
BEAUFORT ARPT  FAIR      50  50 100 CALM      30.14R
HILTON HEAD IS NOT AVBL
WALTERBORO     SUNNY     45  43  93 CALM      30.16R
ALLENDALE      FAIR      52  48  87 CALM      30.15R

...SOUTHERN MIDLANDS AND PEE DEE...

CITY           SKY/WX    TMP DP  RH WIND       PRES   REMARKS
GEORGETOWN     FAIR      45  43  93 CALM      30.15R
KINGSTREE      FAIR      41  37  87 CALM      30.16R
ORANGEBURG     CLEAR     47  45  93 CALM      30.16R FOG
BARNWELL       FAIR      48  46  93 CALM      30.16R
AIKEN          FAIR      46  41  81 NE5       30.19R
MANNING        FAIR      45  30  57 MISG      30.16R
COLUMBIA       CLEAR     42  38  85 CALM      30.16R
SUMTER         CLEAR     48  40  74 N5        30.13R
FLORENCE       CLEAR     49  43  80 CALM      30.15R
MYRTLE BEACH   CLEAR     52  45  77 N3        30.14R
N MYRTLE BEACH CLEAR     50  45  83 N5        30.13R

$$

GAZ063-065-086>088-099>101-113>116-118-119-134>141-150-201200-
...SOUTHEAST GEORGIA...

CITY           SKY/WX    TMP DP  RH WIND       PRES   REMARKS
SAVANNAH ARPT  PTCLDY    49  46  90 CALM      30.14R
HUNTER AAF     CLEAR     48  48 100 CALM      30.11R
FORT STEWART   CLEAR     46  44  93 CALM      30.11R
STATESBORO     CLEAR     45  45 100 CALM      30.14F
SYLVANIA       SUNNY    N/A N/A N/A CALM      30.15S
CLAXTON        FAIR     N/A N/A N/A CALM      30.14S

...CSRA...CENTRAL AND FAR SOUTHEAST GEORGIA...

CITY           SKY/WX    TMP DP  RH WIND       PRES   REMARKS
THOMSON        CLEAR     42  42 100 CALM      30.20S
AUGUSTA-BUSH   PTCLDY    44  41  89 CALM      30.15R FOG
AUGUSTA-DANIEL PTCLDY    50  45  83 N3        30.15R
SWAINSBORO     FAIR      48  46  93 CALM      30.15R
VIDALIA        PTCLDY    52  52 100 NE3       30.13S
EASTMAN        FOG       46  46 100 CALM      30.16R VSB 3/4
HAZLEHURST     FAIR      52  52 100 NE3       30.11S
ALMA           CLEAR     47  47 100 CALM      30.11F FOG
WAYCROSS       CLEAR     50  50 100 CALM      30.12R
JESUP          FAIR      46  45  93 CALM      30.12F
BAXLEY         FAIR      50  50 100 CALM      30.12S FOG
BRUNSWICK      FOG       48  48 100 CALM      30.13S VSB 1/4
SAINT SIMONS   CLEAR     54  52  93 N3        30.11R

$$

SCZ027-028-034-036>038-045-046-048>050-GAZ119-141-201200-
...LAKE AND SUPPLEMENTAL COASTAL OBSERVATIONS...

STATION/POSITION TIME  TEMP    WIND        PRES    WAVE   SWELL
                       AIR SEA DIR/SP/G            HT/PER HT/PER/DIR
                 (UTC) (F)     (DEG/KT/KT) (MB)    (FT/S) (FT/S/D)
WINYAH BAY       1045   53     360/  4     1020.0S
LAKE MURRAY      1120   48        CALM     1021.0R
ACE BASIN NERRS  1045   51     360/  2     1020.0R
FORT PULASKI     1100   56 60  340/  2/  3 1020.5
SAPELO ISLAND    1100   53        CALM     1020.0

$$

ANZ835-935-AMZ111-154-330-350-352-354-370-450-454-472-201200-
...C-MAN AND BUOY OBSERVATIONS...

STATION/POSITION TIME  TEMP    WIND        PRES    WAVE   SWELL
                       AIR SEA DIR/SP/G            HT/PER HT/PER/DIR
                 (UTC) (F)     (DEG/KT/KT) (MB)    (FT/S) (FT/S/D)
BUOY 41004       1050   64 69  340/ 10/ 12 1019.3R   1/ 7
BUOY 41008       1050   61 61  350/  4/  6 1019.6R   1
FOLLY BEACH CMAN 1100   56     350/  7/  8 1020.7R
CAPERS NEARSHORE 1108   57 59   10/ 10/ 12 1020.1R
FRIPP NEARSHORE  1108   59 60   20/  8/ 10 1019.9R


STATION/POSITION TIME  TEMP    WIND        PRES    WAVE   SWELL
                       AIR SEA DIR/SP/G            HT/PER HT/PER/DIR
                 (UTC) (F)     (DEG/KT/KT) (MB)    (FT/S) (FT/S/D)
5E ST. MARYS GA  1100      63                N/A     1
FRYING PAN BUOY  1110      65  360/ 14/ 17 1020.0
BUOY 41025       1050   62 65  350/ 12/ 12 1019.3R   1/ 6   2/110/ 6
CAPE LOOKOUT NC  1100   54     350/ 13/ 15 1019.3R
BUOY 41002       1050   71 71   10/ 17/ 21 1016.8R   6/ 7   2/ 30/11
BUOY 41010       NOT AVBL
ST AUGUSTINE FL  1100   60 66  330/  2/  2 1020.4R


$$



USA.gov is the U.S. government's official web portal to all federal, state and local government web resources and services.